| time (UTC) | temp F | wind direction | speed knots | gust knots | rain 1hr in | rain 24hr in | rain mn in | humidity % | barometer mb |
| 20260504201559 | 63 | 188 | 4.3 | 8.7 | 0.00 | 0.00 | 0.00 | 50 | 1015.2 |
| 20260504200057 | 62 | 205 | 2.6 | 9.6 | 0.00 | 0.00 | 0.00 | 53 | 1015.5 |
| 20260504194553 | 64 | 265 | 2.6 | 8.7 | 0.00 | 0.00 | 0.00 | 53 | 1015.7 |
| 20260504193047 | 61 | 184 | 3.5 | 8.7 | 0.00 | 0.00 | 0.00 | 57 | 1015.8 |
| 20260504191545 | 61 | 195 | 3.5 | 7.8 | 0.00 | 0.00 | 0.00 | 57 | 1016.2 |
| 20260504190047 | 60 | 184 | 0.9 | 7.8 | 0.00 | 0.00 | 0.00 | 61 | 1016.2 |
| 20260504184534 | 59 | 37 | 3.5 | 6.1 | 0.00 | 0.00 | 0.00 | 62 | 1016.4 |
| 20260504183032 | 58 | 212 | 4.3 | 9.6 | 0.00 | 0.00 | 0.00 | 62 | 1016.7 |
| 20260504181527 | 57 | 221 | 3.5 | 10.4 | 0.00 | 0.00 | 0.00 | 64 | 1016.7 |
| 20260504180023 | 56 | 218 | 2.6 | 9.6 | 0.00 | 0.00 | 0.00 | 65 | 1016.9 |
| 20260504174520 | 55 | 199 | 7.0 | 13.0 | 0.00 | 0.00 | 0.00 | 65 | 1017.0 |
| 20260504173016 | 55 | 220 | 2.6 | 10.4 | 0.00 | 0.00 | 0.00 | 66 | 1017.2 |
| 20260504171532 | 54 | 46 | 8.7 | 16.5 | 0.00 | 0.00 | 0.00 | 66 | 1017.1 |
| 20260504081521 | 40 | 14 | 8.7 | 20.0 | 0.00 | 0.00 | 0.00 | 79 | 1017.9 |
| 20260504044526 | 42 | 264 | 7.0 | 14.8 | 0.00 | 0.00 | 0.00 | 53 | 1019.5 |
| 20260504043019 | 42 | 275 | 8.7 | 14.8 | 0.00 | 0.00 | 0.00 | 53 | 1019.3 |
| 20260504041515 | 42 | 257 | 7.8 | 13.0 | 0.00 | 0.00 | 0.00 | 54 | 1019.3 |
| 20260504040012 | 42 | 354 | 8.7 | 14.8 | 0.00 | 0.00 | 0.00 | 55 | 1019.4 |
| 20260504034508 | 42 | 262 | 8.7 | 13.9 | 0.00 | 0.00 | 0.00 | 51 | 1019.3 |
| 20260504033007 | 42 | 219 | 1.7 | 6.1 | 0.00 | 0.00 | 0.00 | 49 | 1019.1 |
| 20260504031505 | 42 | 221 | 4.3 | 9.6 | 0.00 | 0.00 | 0.00 | 50 | 1019.1 |
| 20260504030003 | 42 | 240 | 5.2 | 9.6 | 0.00 | 0.00 | 0.00 | 56 | 1019.2 |
| 20260504024505 | 42 | 299 | 4.3 | 12.2 | 0.00 | 0.00 | 0.00 | 59 | 1019.4 |
| 20260504023100 | 41 | 251 | 7.8 | 13.9 | 0.00 | 0.00 | 0.00 | 62 | 1019.6 |
| 20260504021557 | 42 | 262 | 7.8 | 13.0 | 0.00 | 0.00 | 0.00 | 57 | 1019.7 |
| 20260504020057 | 42 | 264 | 7.0 | 14.8 | 0.00 | 0.00 | 0.00 | 54 | 1019.6 |
| 20260504014603 | 42 | 238 | 7.0 | 12.2 | 0.00 | 0.00 | 0.00 | 52 | 1019.4 |
| 20260504013054 | 42 | 252 | 3.5 | 7.8 | 0.00 | 0.00 | 0.00 | 52 | 1019.3 |
| 20260504011558 | 43 | 268 | 5.2 | 11.3 | 0.00 | 0.00 | 0.00 | 50 | 1019.3 |
| 20260504010056 | 42 | 262 | 4.3 | 9.6 | 0.00 | 0.00 | 0.00 | 54 | 1019.2 |
| 20260504004547 | 42 | 274 | 4.3 | 7.8 | 0.00 | 0.00 | 0.00 | 55 | 1019.0 |
| 20260504003050 | 42 | 263 | 4.3 | 7.0 | 0.00 | 0.00 | 0.00 | 54 | 1019.0 |
| 20260504001543 | 43 | 257 | 1.7 | 7.8 | 0.00 | 0.00 | 0.00 | 52 | 1018.9 |
| 20260504000038 | 44 | 18 | 2.6 | 7.0 | 0.00 | 0.00 | 0.00 | 50 | 1018.9 |
| 20260503234545 | 46 | 348 | 1.7 | 6.1 | 0.00 | 0.00 | 0.00 | 48 | 1019.0 |
| 20260503233034 | 47 | 25 | 1.7 | 7.0 | 0.00 | 0.00 | 0.00 | 48 | 1019.0 |
| 20260503231532 | 47 | 22 | 3.5 | 8.7 | 0.00 | 0.00 | 0.00 | 48 | 1018.9 |
| 20260503230034 | 48 | 257 | 4.3 | 11.3 | 0.00 | 0.00 | 0.00 | 47 | 1018.8 |
| 20260503224528 | 49 | 349 | 2.6 | 11.3 | 0.00 | 0.00 | 0.00 | 46 | 1018.8 |
| 20260503223027 | 49 | 271 | 3.5 | 10.4 | 0.00 | 0.00 | 0.00 | 47 | 1019.0 |
| 20260503221526 | 49 | 238 | 4.3 | 9.6 | 0.00 | 0.00 | 0.00 | 46 | 1019.0 |
| 20260503220039 | 48 | 267 | 4.3 | 9.6 | 0.00 | 0.00 | 0.00 | 45 | 1019.2 |
| 20260503214521 | 49 | 264 | 5.2 | 10.4 | 0.00 | 0.00 | 0.00 | 45 | 1019.4 |
| 20260503213024 | 48 | 306 | 2.6 | 13.0 | 0.00 | 0.00 | 0.00 | 45 | 1019.6 |
| 20260503211519 | 48 | 243 | 3.5 | 13.9 | 0.00 | 0.00 | 0.00 | 43 | 1019.7 |
| 20260503210017 | 49 | 42 | 6.1 | 9.6 | 0.00 | 0.00 | 0.00 | 44 | 1019.6 |
| 20260503204515 | 48 | 264 | 4.3 | 8.7 | 0.00 | 0.00 | 0.00 | 46 | 1019.8 |
| 20260503203025 | 47 | 229 | 3.5 | 12.2 | 0.00 | 0.00 | 0.00 | 46 | 1019.9 |